STARLINK-1143, 45179

Orbit data source: Space-Track

STARLINK-1143, 45179 is a payload satellite owned by SpaceX/Seattle (US) in LEO that was launched on Mon, 17 Feb 2020 UTC via an FALCON 9 launch vehicle from the Air Force Eastern Test Range (AFETR). Payload-class satellites include a variety of spacecraft equipped with specific instruments for various scientific and technological missions. These include communications satellites like Starlink; space stations such as the ISS; scientific satellites like the Hubble; Earth observation satellites from companies like Planet Labs, Umbra, and HawkEye 360; GPS; miniature CubeSats for education and research; and military/defense satellites.

Loading next visibility...
Identifier
45179, 2020-012B
Orbit
LEO
Country
Flag of USUS
Related business
Manufacturer
SpaceX/Seattle
Mission
Partially operational Commercial Communications
Bus & Motor
STARLINK, Unknown motor
Mass
260 kg wet, ~248 kg dry
Launch date (UTC)
2020-02-17 (6 years ago)
Launch vehicle
FALCON 9
Launch site
Air Force Eastern Test Range (AFETR)
Object type
Payload
Rocket body
Debris
Shape & HBR
Box + 1 Pan, 10.1 m
Radar Cross Section
13.562 m², Large (>1 m²)

Expand to show TLE details & history
Last TLE update: 7 hours ago

TLE from 7 hours ago
0 STARLINK-1143
1 45179U 20012B   26124.66668981  .00164719  00000-0  94330-3 0  9996
2 45179  53.0393  53.0898 0001478  47.2413  68.4442 15.77837727  5990
Epoch: 2026-05-04T16:00Z
TLE epoch observation values (Epoch: 2026-05-04T16:00:01.999Z)
Latitude
46.2006°
Longitude
79.24275°
Altitude
341.129 km
Speed
7.71 km/s
True Right ascension
12h 07m 12s
True Declination
46° 01' 05"
Sunlit
Object was in partial shadow at epoch
Visualization orbit readout
Latitude
Unknown
Longitude
Unknown
Altitude
Unknown
Speed
Unknown
Apparent Right ascension
Unknown
Apparent Declination
Unknown
Sunlit
N/A
Visualization observer readout
Local Sidereal Time
06:43:25
Azimuth
Unknown
Elevation
Unknown
Doppler factor
Unknown
Orbital elements
Apogee altitude
337.842 km
Perigee altitude
335.857 km
Semi-major axis
6,714.987 km
Eccentricity
0.00015
Inclination
53.0393°
RAAN
53.0898°
Arg. of periapsis
47.2413°
True anomaly
68.45995°
Mean anomaly
68.4442°
Eccentric anomaly
68.45208°
Mean motion
3.94435 °/min
Orbital period
91.27 mins
BSTAR
0.0009433
Loading maneuver chart data...
Computing Atmospheric mass density...
Loading historical data...
Loading historical data...
Loading historical data...
Loading historical data...
Loading historical data...
Loading historical data...
Loading historical data...

Documentation

Showing up to 5 results
|